Wetterdaten: Sonntag, 01.03.2015
Datum Zeit Temp. A. Feuchte A. Luftdruck Regen Wind Richtung Richtung Sonnenschein ET UV Solar Taupunkt Windchill Windben Empfang
01.03.2015 00:00 -1,2 C 85 % 1017,1 hPa 0,0 l/m 0,0 km/h (0 Bft) S 183 0 min 0,000 mm 0,0 UV-I 0 W/m -3,4 C -1,2 C 0,0 km/h (0 Bft) 0,00 %
01.03.2015 00:15 -1,5 C 86 % 1017,1 hPa 0,0 l/m 0,0 km/h (0 Bft) S 190 0 min 0,000 mm 0,0 UV-I 0 W/m -3,5 C -1,5 C 0,0 km/h (0 Bft) 0,00 %
01.03.2015 00:30 -1,7 C 86 % 1017,1 hPa 0,0 l/m 0,0 km/h (0 Bft) SW 218 0 min 0,000 mm 0,0 UV-I 0 W/m -3,7 C -1,7 C 0,0 km/h (0 Bft) 0,00 %
01.03.2015 00:45 -1,9 C 86 % 1017,0 hPa 0,0 l/m 0,0 km/h (0 Bft) S-SW 195 0 min 0,000 mm 0,0 UV-I 0 W/m -3,9 C -1,9 C 0,0 km/h (0 Bft) 0,00 %
01.03.2015 01:00 -1,8 C 86 % 1016,7 hPa 0,0 l/m 0,0 km/h (0 Bft) S-SW 193 0 min 0,000 mm 0,0 UV-I 0 W/m -3,8 C -1,8 C 0,0 km/h (0 Bft) 0,00 %
01.03.2015 01:15 -1,8 C 87 % 1016,4 hPa 0,0 l/m 0,0 km/h (0 Bft) S 180 0 min 0,000 mm 0,0 UV-I 0 W/m -3,7 C -1,8 C 0,0 km/h (0 Bft) 0,00 %
01.03.2015 01:30 -1,8 C 87 % 1016,4 hPa 0,0 l/m 0,0 km/h (0 Bft) S-SW 192 0 min 0,000 mm 0,0 UV-I 0 W/m -3,7 C -1,8 C 0,0 km/h (0 Bft) 0,00 %
01.03.2015 01:45 -2,0 C 86 % 1016,1 hPa 0,0 l/m 0,0 km/h (0 Bft) S-SW 192 0 min 0,000 mm 0,0 UV-I 0 W/m -4,0 C -2,0 C 0,0 km/h (0 Bft) 0,00 %
01.03.2015 02:00 -2,3 C 82 % 1015,8 hPa 0,0 l/m 0,0 km/h (0 Bft) S-SW 192 0 min 0,000 mm 0,0 UV-I 0 W/m -4,9 C -2,3 C 0,0 km/h (0 Bft) 0,00 %
01.03.2015 02:15 -2,5 C 87 % 1015,8 hPa 0,0 l/m 0,0 km/h (0 Bft) S-SW 210 0 min 0,000 mm 0,0 UV-I 0 W/m -4,4 C -2,5 C 0,0 km/h (0 Bft) 0,00 %
01.03.2015 02:30 -2,4 C 86 % 1015,5 hPa 0,0 l/m 0,0 km/h (0 Bft) S-SW 193 0 min 0,000 mm 0,0 UV-I 0 W/m -4,4 C -2,4 C 0,0 km/h (0 Bft) 0,00 %
01.03.2015 02:45 -2,5 C 87 % 1015,1 hPa 0,0 l/m 0,0 km/h (0 Bft) S-SW 193 0 min 0,000 mm 0,0 UV-I 0 W/m -4,4 C -2,5 C 0,0 km/h (0 Bft) 0,00 %
01.03.2015 03:00 -2,4 C 87 % 1015,1 hPa 0,0 l/m 0,0 km/h (0 Bft) S-SW 193 0 min 0,000 mm 0,0 UV-I 0 W/m -4,3 C -2,4 C 0,0 km/h (0 Bft) 0,00 %
01.03.2015 03:15 -2,4 C 87 % 1015,1 hPa 0,0 l/m 0,0 km/h (0 Bft) S-SW 193 0 min 0,000 mm 0,0 UV-I 0 W/m -4,3 C -2,4 C 0,0 km/h (0 Bft) 0,00 %
01.03.2015 03:30 -2,3 C 87 % 1014,9 hPa 0,0 l/m 0,0 km/h (0 Bft) S-SW 208 0 min 0,000 mm 0,0 UV-I 0 W/m -4,2 C -2,3 C 0,0 km/h (0 Bft) 0,00 %
01.03.2015 03:45 -2,2 C 87 % 1014,7 hPa 0,0 l/m 0,0 km/h (0 Bft) S 189 0 min 0,000 mm 0,0 UV-I 0 W/m -4,1 C -2,2 C 0,0 km/h (0 Bft) 0,00 %
01.03.2015 04:00 -2,0 C 87 % 1014,9 hPa 0,0 l/m 0,0 km/h (0 Bft) S-SW 209 0 min 0,000 mm 0,0 UV-I 0 W/m -3,9 C -2,0 C 0,0 km/h (0 Bft) 0,00 %
01.03.2015 04:15 -1,9 C 87 % 1014,6 hPa 0,0 l/m 0,0 km/h (0 Bft) S-SW 199 0 min 0,000 mm 0,0 UV-I 0 W/m -3,8 C -1,9 C 0,0 km/h (0 Bft) 0,00 %
01.03.2015 04:30 -1,9 C 87 % 1014,6 hPa 0,0 l/m 0,0 km/h (0 Bft) S-SW 204 0 min 0,000 mm 0,0 UV-I 0 W/m -3,8 C -1,9 C 0,0 km/h (0 Bft) 0,00 %
01.03.2015 04:45 -2,1 C 87 % 1014,6 hPa 0,0 l/m 0,0 km/h (0 Bft) SW 231 0 min 0,000 mm 0,0 UV-I 0 W/m -4,0 C -2,1 C 0,0 km/h (0 Bft) 0,00 %
01.03.2015 05:00 -2,1 C 87 % 1014,5 hPa 0,0 l/m 0,0 km/h (0 Bft) S-SW 195 0 min 0,000 mm 0,0 UV-I 0 W/m -4,0 C -2,1 C 0,0 km/h (0 Bft) 0,00 %
01.03.2015 05:15 -2,3 C 87 % 1014,2 hPa 0,0 l/m 0,0 km/h (0 Bft) S-SW 207 0 min 0,000 mm 0,0 UV-I 0 W/m -4,2 C -2,3 C 0,0 km/h (0 Bft) 0,00 %
01.03.2015 05:30 -2,4 C 87 % 1014,1 hPa 0,0 l/m 0,0 km/h (0 Bft) S-SW 200 0 min 0,000 mm 0,0 UV-I 0 W/m -4,3 C -2,4 C 0,0 km/h (0 Bft) 0,00 %
01.03.2015 05:45 -2,4 C 87 % 1014,0 hPa 0,0 l/m 0,0 km/h (0 Bft) S-SW 205 0 min 0,000 mm 0,0 UV-I 0 W/m -4,3 C -2,4 C 0,0 km/h (0 Bft) 0,00 %
01.03.2015 06:00 -2,4 C 83 % 1014,1 hPa 0,0 l/m 0,0 km/h (0 Bft) S-SW 195 0 min 0,000 mm 0,0 UV-I 0 W/m -4,9 C -2,4 C 0,0 km/h (0 Bft) 0,00 %
01.03.2015 06:15 -2,5 C 82 % 1013,8 hPa 0,0 l/m 0,0 km/h (0 Bft) S 172 0 min 0,000 mm 0,0 UV-I 0 W/m -5,1 C -2,5 C 0,0 km/h (0 Bft) 0,00 %
01.03.2015 06:30 -2,8 C 82 % 1013,9 hPa 0,0 l/m 0,0 km/h (0 Bft) S-SW 201 0 min 0,000 mm 0,0 UV-I 0 W/m -5,4 C -2,8 C 0,0 km/h (0 Bft) 0,00 %
01.03.2015 06:45 -2,8 C 82 % 1013,8 hPa 0,0 l/m 0,0 km/h (0 Bft) SW 225 0 min 0,000 mm 0,0 UV-I 0 W/m -5,4 C -2,8 C 0,0 km/h (0 Bft) 0,00 %
01.03.2015 07:00 -2,7 C 82 % 1013,9 hPa 0,0 l/m 0,0 km/h (0 Bft) SW 220 0 min 0,000 mm 0,0 UV-I 3 W/m -5,3 C -2,7 C 0,0 km/h (0 Bft) 0,00 %
01.03.2015 07:15 -2,6 C 82 % 1013,5 hPa 0,0 l/m 0,0 km/h (0 Bft) SW 218 0 min 0,000 mm 0,0 UV-I 22 W/m -5,2 C -2,6 C 0,0 km/h (0 Bft) 0,00 %
01.03.2015 07:30 -2,5 C 86 % 1013,8 hPa 0,0 l/m 0,0 km/h (0 Bft) SW 218 0 min 0,000 mm 0,0 UV-I 43 W/m -4,5 C -2,5 C 0,0 km/h (0 Bft) 0,00 %
01.03.2015 07:45 -2,2 C 86 % 1013,8 hPa 0,0 l/m 0,0 km/h (0 Bft) SW 216 0 min 0,000 mm 1,0 UV-I 51 W/m -4,2 C -2,2 C 0,0 km/h (0 Bft) 0,00 %
01.03.2015 08:00 -2,3 C 86 % 1013,5 hPa 0,0 l/m 0,0 km/h (0 Bft) S 176 0 min 0,000 mm 1,0 UV-I 73 W/m -4,3 C -2,3 C 0,0 km/h (0 Bft) 0,00 %
01.03.2015 08:15 -2,0 C 86 % 1013,2 hPa 0,0 l/m 0,0 km/h (0 Bft) SO 127 0 min 0,000 mm 1,0 UV-I 90 W/m -4,0 C -2,0 C 0,0 km/h (0 Bft) 0,00 %
01.03.2015 08:30 -2,3 C 86 % 1013,3 hPa 0,0 l/m 0,0 km/h (0 Bft) O 100 0 min 0,000 mm 1,0 UV-I 82 W/m -4,3 C -2,3 C 0,0 km/h (0 Bft) 0,00 %
01.03.2015 08:45 -2,5 C 86 % 1013,2 hPa 0,0 l/m 0,0 km/h (0 Bft) SO 127 0 min 0,000 mm 1,0 UV-I 64 W/m -4,5 C -2,5 C 0,0 km/h (0 Bft) 0,00 %
01.03.2015 09:00 -2,1 C 86 % 1011,8 hPa 0,0 l/m 0,0 km/h (0 Bft) W-NW 298 0 min 0,000 mm 2,0 UV-I 127 W/m -4,1 C -2,1 C 0,0 km/h (0 Bft) 0,00 %
01.03.2015 09:15 -1,3 C 86 % 1011,7 hPa 0,0 l/m 0,0 km/h (0 Bft) S 183 0 min 0,000 mm 1,0 UV-I 192 W/m -3,3 C -1,3 C 0,0 km/h (0 Bft) 0,00 %
01.03.2015 09:30 -1,2 C 86 % 1011,6 hPa 0,0 l/m 0,0 km/h (0 Bft) O-NO 62 0 min 0,000 mm 2,0 UV-I 125 W/m -3,2 C -1,2 C 0,0 km/h (0 Bft) 0,00 %
01.03.2015 09:45 -0,9 C 86 % 1011,2 hPa 0,0 l/m 0,4 km/h (0 Bft) S 175 0 min 0,000 mm 2,0 UV-I 132 W/m -2,9 C -0,9 C 4,0 km/h (1 Bft) 0,00 %
01.03.2015 10:00 -0,9 C 86 % 1011,4 hPa 0,0 l/m 0,0 km/h (0 Bft) O-NO 75 0 min 0,000 mm 2,0 UV-I 157 W/m -2,9 C -0,9 C 0,0 km/h (0 Bft) 0,00 %
01.03.2015 10:15 -0,7 C 86 % 1011,7 hPa 0,0 l/m 0,0 km/h (0 Bft) S 185 0 min 0,000 mm 1,0 UV-I 140 W/m -2,7 C -0,7 C 0,0 km/h (0 Bft) 0,00 %
01.03.2015 10:30 -0,5 C 85 % 1011,6 hPa 0,0 l/m 0,0 km/h (0 Bft) W-SW 253 0 min 0,000 mm 2,0 UV-I 126 W/m -2,7 C -0,5 C 0,0 km/h (0 Bft) 0,00 %
01.03.2015 10:45 -0,4 C 85 % 1011,6 hPa 0,0 l/m 0,0 km/h (0 Bft) N-NO 32 0 min 0,000 mm 1,0 UV-I 142 W/m -2,6 C -0,4 C 0,0 km/h (0 Bft) 0,00 %
01.03.2015 11:00 0,0 C 85 % 1011,7 hPa 0,0 l/m 0,0 km/h (0 Bft) SW 229 0 min 0,000 mm 2,0 UV-I 131 W/m -2,2 C 0,0 C 0,0 km/h (0 Bft) 0,00 %
01.03.2015 11:15 0,8 C 84 % 1010,9 hPa 0,0 l/m 0,0 km/h (0 Bft) S-SW 200 0 min 0,000 mm 2,0 UV-I 149 W/m -1,6 C 0,8 C 0,0 km/h (0 Bft) 0,00 %
01.03.2015 11:30 1,1 C 83 % 1011,0 hPa 0,0 l/m 0,0 km/h (0 Bft) SW 221 0 min 0,000 mm 2,0 UV-I 193 W/m -1,5 C 1,1 C 0,0 km/h (0 Bft) 0,00 %
01.03.2015 11:45 1,4 C 81 % 1010,6 hPa 0,0 l/m 0,0 km/h (0 Bft) S-SW 207 0 min 0,000 mm 2,0 UV-I 195 W/m -1,5 C 1,4 C 0,0 km/h (0 Bft) 0,00 %
01.03.2015 12:00 2,2 C 78 % 1010,2 hPa 0,0 l/m 0,0 km/h (0 Bft) W-NW 294 0 min 0,000 mm 2,0 UV-I 199 W/m -1,2 C 2,2 C 0,0 km/h (0 Bft) 0,00 %
01.03.2015 12:15 2,2 C 77 % 1009,7 hPa 0,0 l/m 0,0 km/h (0 Bft) S-SO 150 0 min 0,000 mm 3,0 UV-I 199 W/m -1,4 C 2,2 C 0,0 km/h (0 Bft) 0,00 %
01.03.2015 12:30 2,7 C 79 % 1009,5 hPa 0,0 l/m 0,0 km/h (0 Bft) SO 129 0 min 0,000 mm 3,0 UV-I 244 W/m -0,6 C 2,7 C 0,0 km/h (0 Bft) 0,00 %
01.03.2015 12:45 3,1 C 77 % 1009,3 hPa 0,0 l/m 0,0 km/h (0 Bft) S-SW 200 0 min 0,000 mm 2,0 UV-I 241 W/m -0,5 C 3,1 C 0,0 km/h (0 Bft) 0,00 %
01.03.2015 13:00 3,2 C 77 % 1008,8 hPa 0,0 l/m 0,0 km/h (0 Bft) S 172 0 min 0,000 mm 2,0 UV-I 234 W/m -0,4 C 3,2 C 0,0 km/h (0 Bft) 0,00 %
01.03.2015 13:15 3,5 C 75 % 1008,6 hPa 0,0 l/m 4,0 km/h (1 Bft) O-SO 104 0 min 0,000 mm 2,0 UV-I 210 W/m -0,5 C 3,5 C 4,0 km/h (1 Bft) 0,00 %
01.03.2015 13:30 3,7 C 76 % 1008,7 hPa 0,0 l/m 0,7 km/h (0 Bft) O-SO 106 0 min 0,000 mm 1,0 UV-I 192 W/m -0,1 C 3,7 C 4,0 km/h (1 Bft) 0,00 %
01.03.2015 13:45 3,7 C 76 % 1009,0 hPa 0,0 l/m 1,8 km/h (1 Bft) O-SO 111 0 min 0,000 mm 1,0 UV-I 170 W/m -0,1 C 3,7 C 4,0 km/h (1 Bft) 0,00 %
01.03.2015 14:00 3,6 C 76 % 1008,5 hPa 0,0 l/m 0,0 km/h (0 Bft) S 179 0 min 0,000 mm 1,0 UV-I 100 W/m -0,2 C 3,6 C 0,0 km/h (0 Bft) 0,00 %
01.03.2015 14:15 4,0 C 74 % 1008,6 hPa 0,0 l/m 0,0 km/h (0 Bft) O-SO 114 0 min 0,000 mm 1,0 UV-I 139 W/m -0,2 C 4,0 C 0,0 km/h (0 Bft) 0,00 %
01.03.2015 14:30 3,8 C 74 % 1008,8 hPa 0,0 l/m 0,0 km/h (0 Bft) W-SW 238 0 min 0,000 mm 1,0 UV-I 114 W/m -0,4 C 3,8 C 0,0 km/h (0 Bft) 0,00 %
01.03.2015 14:45 3,8 C 75 % 1008,8 hPa 0,0 l/m 0,0 km/h (0 Bft) S-SW 195 0 min 0,000 mm 1,0 UV-I 111 W/m -0,2 C 3,8 C 0,0 km/h (0 Bft) 0,00 %
01.03.2015 15:00 4,2 C 74 % 1008,5 hPa 0,0 l/m 0,0 km/h (0 Bft) S 183 0 min 0,000 mm 1,0 UV-I 93 W/m -0,0 C 4,2 C 0,0 km/h (0 Bft) 0,00 %
01.03.2015 15:15 4,4 C 74 % 1008,6 hPa 0,0 l/m 0,0 km/h (0 Bft) S 177 0 min 0,000 mm 1,0 UV-I 87 W/m 0,2 C 4,4 C 0,0 km/h (0 Bft) 0,00 %
01.03.2015 15:30 4,6 C 77 % 1008,3 hPa 0,0 l/m 0,4 km/h (0 Bft) S 172 0 min 0,000 mm 1,0 UV-I 84 W/m 0,9 C 4,6 C 4,0 km/h (1 Bft) 0,00 %
01.03.2015 15:45 4,4 C 78 % 1009,0 hPa 0,0 l/m 0,0 km/h (0 Bft) S 174 0 min 0,000 mm 1,0 UV-I 165 W/m 0,9 C 4,4 C 0,0 km/h (0 Bft) 0,00 %
01.03.2015 16:00 4,1 C 80 % 1009,1 hPa 0,0 l/m 0,0 km/h (0 Bft) S-SW 204 0 min 0,000 mm 0,0 UV-I 64 W/m 1,0 C 4,1 C 0,0 km/h (0 Bft) 0,00 %
01.03.2015 16:15 4,0 C 81 % 1009,4 hPa 0,3 l/m 0,0 km/h (0 Bft) S-SW 204 0 min 0,000 mm 0,0 UV-I 35 W/m 1,0 C 4,0 C 0,0 km/h (0 Bft) 0,00 %
01.03.2015 16:30 3,9 C 83 % 1009,2 hPa 0,0 l/m 0,0 km/h (0 Bft) S-SW 211 0 min 0,000 mm 0,0 UV-I 25 W/m 1,3 C 3,9 C 0,0 km/h (0 Bft) 0,00 %
01.03.2015 16:45 3,7 C 84 % 1009,4 hPa 0,3 l/m 0,0 km/h (0 Bft) S-SW 213 0 min 0,000 mm 0,0 UV-I 16 W/m 1,3 C 3,7 C 0,0 km/h (0 Bft) 0,00 %
01.03.2015 17:00 3,6 C 85 % 1009,1 hPa 0,0 l/m 0,0 km/h (0 Bft) S 181 0 min 0,000 mm 0,0 UV-I 15 W/m 1,3 C 3,6 C 0,0 km/h (0 Bft) 0,00 %
01.03.2015 17:15 3,7 C 86 % 1009,0 hPa 0,0 l/m 0,0 km/h (0 Bft) S 176 0 min 0,000 mm 0,0 UV-I 5 W/m 1,6 C 3,7 C 0,0 km/h (0 Bft) 0,00 %
01.03.2015 17:30 3,7 C 87 % 1009,4 hPa 0,0 l/m 0,0 km/h (0 Bft) S-SW 194 0 min 0,000 mm 0,0 UV-I 7 W/m 1,7 C 3,7 C 0,0 km/h (0 Bft) 0,00 %
01.03.2015 17:45 3,7 C 87 % 1009,1 hPa 0,3 l/m 0,0 km/h (0 Bft) S-SW 198 0 min 0,000 mm 0,0 UV-I 0 W/m 1,7 C 3,7 C 0,0 km/h (0 Bft) 0,00 %
01.03.2015 18:00 3,7 C 88 % 1009,4 hPa 0,0 l/m 0,0 km/h (0 Bft) S-SW 194 0 min 0,000 mm 0,0 UV-I 0 W/m 1,9 C 3,7 C 0,0 km/h (0 Bft) 0,00 %
01.03.2015 18:15 3,7 C 88 % 1009,5 hPa 0,0 l/m 0,0 km/h (0 Bft) S-SW 195 0 min 0,000 mm 0,0 UV-I 0 W/m 1,9 C 3,7 C 0,0 km/h (0 Bft) 0,00 %
01.03.2015 18:30 3,7 C 88 % 1009,6 hPa 0,0 l/m 0,0 km/h (0 Bft) S-SW 195 0 min 0,000 mm 0,0 UV-I 0 W/m 1,9 C 3,7 C 0,0 km/h (0 Bft) 0,00 %
01.03.2015 18:45 3,6 C 88 % 1009,2 hPa 0,0 l/m 0,0 km/h (0 Bft) S-SW 208 0 min 0,000 mm 0,0 UV-I 0 W/m 1,8 C 3,6 C 0,0 km/h (0 Bft) 0,00 %
01.03.2015 19:00 3,5 C 89 % 1009,4 hPa 0,0 l/m 0,0 km/h (0 Bft) S-SW 213 0 min 0,000 mm 0,0 UV-I 0 W/m 1,9 C 3,5 C 0,0 km/h (0 Bft) 0,00 %
01.03.2015 19:15 3,5 C 90 % 1009,4 hPa 0,0 l/m 0,0 km/h (0 Bft) S 174 0 min 0,000 mm 0,0 UV-I 0 W/m 2,0 C 3,5 C 0,0 km/h (0 Bft) 0,00 %
01.03.2015 19:30 3,4 C 89 % 1009,5 hPa 0,3 l/m 0,0 km/h (0 Bft) SW 220 0 min 0,000 mm 0,0 UV-I 0 W/m 1,8 C 3,4 C 0,0 km/h (0 Bft) 0,00 %
01.03.2015 19:45 3,6 C 90 % 1009,0 hPa 0,0 l/m 0,0 km/h (0 Bft) S 190 0 min 0,000 mm 0,0 UV-I 0 W/m 2,1 C 3,6 C 0,0 km/h (0 Bft) 0,00 %
01.03.2015 20:00 3,5 C 90 % 1009,2 hPa 0,0 l/m 0,0 km/h (0 Bft) S-SW 201 0 min 0,000 mm 0,0 UV-I 0 W/m 2,0 C 3,5 C 0,0 km/h (0 Bft) 0,00 %
01.03.2015 20:15 3,5 C 90 % 1009,2 hPa 0,0 l/m 0,0 km/h (0 Bft) S 182 0 min 0,000 mm 0,0 UV-I 0 W/m 2,0 C 3,5 C 0,0 km/h (0 Bft) 0,00 %
01.03.2015 20:30 3,4 C 91 % 1009,0 hPa 0,0 l/m 0,0 km/h (0 Bft) S-SW 195 0 min 0,000 mm 0,0 UV-I 0 W/m 2,1 C 3,4 C 0,0 km/h (0 Bft) 0,00 %
01.03.2015 20:45 3,2 C 91 % 1009,2 hPa 0,0 l/m 0,0 km/h (0 Bft) SW 219 0 min 0,000 mm 0,0 UV-I 0 W/m 1,9 C 3,2 C 0,0 km/h (0 Bft) 0,00 %
01.03.2015 21:00 3,2 C 91 % 1009,1 hPa 0,3 l/m 0,4 km/h (0 Bft) O-SO 108 0 min 0,000 mm 0,0 UV-I 0 W/m 1,9 C 3,2 C 4,0 km/h (1 Bft) 0,00 %
01.03.2015 21:15 2,9 C 90 % 1009,0 hPa 0,0 l/m 0,4 km/h (0 Bft) O-NO 59 0 min 0,000 mm 0,0 UV-I 0 W/m 1,4 C 2,9 C 4,0 km/h (1 Bft) 0,00 %
01.03.2015 21:30 2,7 C 90 % 1008,8 hPa 0,0 l/m 0,0 km/h (0 Bft) O 88 0 min 0,000 mm 0,0 UV-I 0 W/m 1,2 C 2,7 C 0,0 km/h (0 Bft) 0,00 %
01.03.2015 21:45 2,7 C 91 % 1008,7 hPa 0,0 l/m 0,0 km/h (0 Bft) S 186 0 min 0,000 mm 0,0 UV-I 0 W/m 1,4 C 2,7 C 0,0 km/h (0 Bft) 0,00 %
01.03.2015 22:00 2,8 C 91 % 1008,6 hPa 0,0 l/m 0,0 km/h (0 Bft) S-SW 196 0 min 0,000 mm 0,0 UV-I 0 W/m 1,5 C 2,8 C 0,0 km/h (0 Bft) 0,00 %
01.03.2015 22:15 2,8 C 91 % 1008,3 hPa 0,0 l/m 0,0 km/h (0 Bft) W-SW 255 0 min 0,000 mm 0,0 UV-I 0 W/m 1,5 C 2,8 C 0,0 km/h (0 Bft) 0,00 %
01.03.2015 22:30 2,9 C 91 % 1008,2 hPa 0,0 l/m 0,0 km/h (0 Bft) S-SW 207 0 min 0,000 mm 0,0 UV-I 0 W/m 1,6 C 2,9 C 0,0 km/h (0 Bft) 0,00 %
01.03.2015 22:45 2,9 C 91 % 1008,1 hPa 0,0 l/m 0,0 km/h (0 Bft) W-SW 253 0 min 0,000 mm 0,0 UV-I 0 W/m 1,6 C 2,9 C 0,0 km/h (0 Bft) 0,00 %
01.03.2015 23:00 2,9 C 91 % 1008,1 hPa 0,0 l/m 0,0 km/h (0 Bft) S 187 0 min 0,000 mm 0,0 UV-I 0 W/m 1,6 C 2,9 C 0,0 km/h (0 Bft) 0,00 %
01.03.2015 23:15 2,9 C 91 % 1007,8 hPa 0,0 l/m 0,0 km/h (0 Bft) SW 231 0 min 0,000 mm 0,0 UV-I 0 W/m 1,6 C 2,9 C 0,0 km/h (0 Bft) 0,00 %
01.03.2015 23:30 4,2 C 90 % 1007,2 hPa 0,3 l/m 0,0 km/h (0 Bft) S 181 0 min 0,000 mm 0,0 UV-I 0 W/m 2,7 C 4,2 C 0,0 km/h (0 Bft) 0,00 %
_ Min-Zeit 06:30 14:15 23:30 - 00:00 - - - - - - 06:30 06:30 00:00 00:00
Minimum _ -2,8 C 74 % 1007,2 hPa - 0,0 km/h (0 Bft) - - - - - - -5,4 C -2,8 C 0,0 km/h (0 Bft) 0,00 %
_ Max-Zeit 15:30 20:30 00:00 16:15 13:15 - - 00:00 00:00 12:15 12:30 23:30 15:30 09:45 00:00
Maximum _ 4,6 C 91 % 1017,1 hPa 0,3 l/m 4,0 km/h
O-SO (1 Bft)
- - 0 min 0,000 mm 3,0 UV-I 244 W/m 2,7 C 4,6 C 4,0 km/h
S (1 Bft)
0,00 %
Durchschnitt _ 0,8 C 85 % 1011,4 hPa #1,8 l/m 0,1 km/h (0 Bft) O-SO - #0 min. #0,000 mm 1,5 UV-I 116 W/m -1,4 C 0,8 C 0,3 km/h (0 Bft) 0,00 %